Zurück zum Katalog

USA 314

AktivMilitärSSO
NORAD 48247·PAYLOAD·🇺🇸 United States

Gestartet Apr 26, 2021 von Vandenberg Space Force Base

Loading…

Nächste Überflüge (nächste 24 Stunden)

TLE

VeraltetSource: Mike McCants

Epoche: Aug 22, 2026, 23:23 UTC

1 48247U 21032A   26234.97495525 0.00000050  00000-0  67998-5 0    08
2 48247  98.0205 349.5991 0157010   4.1627 355.8371 14.70576598    09

Verfolge USA 314 in Echtzeit mit AllMySat

Download on the App Store